STARLINK-4520 (53400 NORAD) Tracking and Keplerian Element Data

This shows tracking and keplerian element data for the satellite.

Feedback or suggestion? Click here.




ElementValue
Catalog53400
NameSTARLINK-4520
Epoch Orbit789
Epoch Day270.25001157
Epoch Year2022
RAAN17.9468
Inclination53.218
Eccentricity0.00015
Argument of Perigee52.3813
Mean Anonmoly330.91
Mean Motion15.0880499
Decay Rate0.00051287
L11 53400U 22097N 22270.25001157 .00051287 00000+0 32203-2 0 9990
L22 53400 53.2180 17.9468 0001500 52.3813 330.9100 15.08804990 7890

Live tracking and technical data element details for STARLINK-4520 (NORAD 53400). STARLINK-4520 can be tracked NOW for your location showing map with azimuth and elevation plus other details from your city location.

Track the satellite on the map from your city or location and see movement details for azimuth, elevation, latitude, longitude, range, height, and movement on the map or in text.







IsCatalogInMostPopularTable: catalog: 53400, numindb: 4
Update: records affected: 1



GetName: 53400 STARLINK-4520

Hit Count: updated at: Thu, 29 Sep 2022 11:48:59 GMT